Powrót do katalogu

STARLINK-1812

AktywnyŁącznośćVLEO
NORAD 47126·PAYLOAD·🇺🇸 United States

Wystrzelony Nov 25, 2020 z Cape Canaveral Space Force Station

Loading…

Następne Przeloty (najbliższe 24 godziny)

TLE

ŚwieżeSource: CelesTrak SupGP

Epoka: Sep 14, 2026, 21:58 UTC

1 47126C 20088E   26257.91576389 -.00017486  00000+0 -66680-3 0  2571
2 47126  53.0954 151.7448 0003767 106.1626 275.6745 15.26151715    14

Śledź STARLINK-1812 w czasie rzeczywistym z AllMySat

Download on the App Store